Location: Newark
(20.1200°S, 168.9600°E)
Time: 02:44:17
(UTC+00:00)

Hubble Space Telescope - Pass Details

Date: 01 December 2019
Orbit: 536 x 540 km, 28.5° (Epoch: 06 December)

Event Time Altitude Azimuth Distance (km) Brightness Sun altitude
Exits shadow 15:07:58 18° 140° (SE) 1,367 3.5 -33.5°
Drops below altitude 10° 15:09:31 10° 123° (ESE) 1,802 4.2 -33.3°
Sets 15:12:05 0° 109° (ESE) 2,693 5.2 -32.9°
